Le nostre stazioni meteo in Italia

Pubblicità
Il mio iltempo24.it
Besancon, Francia (7288): Temperatura & dewpoint: 17.05.2017 16:00:00 - 23.05.2017 16:00:00 (CEST)Besancon, Francia (7288): Temperatura 5cm: 17.05.2017 16:00:00 - 23.05.2017 16:00:00 (CEST)Besancon, Francia (7288): Temperatura -20cm & Temperatura -100cm: 17.05.2017 16:00:00 - 23.05.2017 16:00:00 (CEST)Besancon, Francia (7288): velocità del vento & gusts: 17.05.2017 16:00:00 - 23.05.2017 16:00:00 (CEST)Besancon, Francia (7288): direzione del vento: 17.05.2017 16:00:00 - 23.05.2017 16:00:00 (CEST)Besancon, Francia (7288): reduced air pressure: 17.05.2017 16:00:00 - 23.05.2017 16:00:00 (CEST)Besancon, Francia (7288): visibility: 17.05.2017 16:00:00 - 23.05.2017 16:00:00 (CEST)Besancon, Francia (7288): ore di luce: 17.05.2017 16:00:00 - 23.05.2017 16:00:00 (CEST)Besancon, Francia (7288): precipitazioni: 17.05.2017 16:00:00 - 23.05.2017 16:00:00 (CEST)
Data & Tempo tt [°C] td [°C] tt 5cm [°C] tt -20cm [°C] tt -100cm [°C] ff [km/h] ff [kn] fx [km/h] fx [kn] dd ppp [hPa] vv [km] sd [min] rr [mm]
23.05.2017 16:00:00 25,1 10,9 33,2 18,1 14,0 4 2 20 11 N 1019,7 - 60 0,0
23.05.2017 15:00:00 24,6 11,5 33,6 17,8 14,0 9 5 18 10 SO 1019,7 20 60 0,0
23.05.2017 14:00:00 23,9 11,6 33,3 17,7 14,0 9 5 19 10 O 1020,0 20 60 0,0
23.05.2017 13:00:00 23,4 10,8 32,8 17,5 14,0 8 4 17 9 ONO 1020,3 20 60 0,0
23.05.2017 12:00:00 22,5 12,4 31,9 17,4 13,9 5 3 18 10 ONO 1020,4 20 60 0,0
23.05.2017 11:00:00 21,4 12,5 28,6 17,4 13,9 6 3 16 9 OSO 1020,3 20 60 0,0
23.05.2017 10:00:00 20,0 11,2 23,0 17,5 13,9 8 4 19 10 SO 1020,3 20 60 0,0
23.05.2017 09:00:00 17,5 9,6 13,4 17,6 13,9 2 1 9 5 SO 1020,4 20 44 0,0
23.05.2017 08:00:00 12,9 9,3 9,4 17,7 13,9 2 1 5 3 N 1020,3 20 22 0,0
23.05.2017 07:00:00 11,7 8,4 7,7 17,9 13,9 0 0 6 3 N 1019,8 20 0 0,0
23.05.2017 06:00:00 11,3 8,7 7,4 18,0 13,9 4 2 7 4 NNE 1019,2 20 0 0,0
23.05.2017 05:00:00 11,3 8,5 7,6 18,1 13,9 0 0 5 3 N 1018,9 - 0 0,0
23.05.2017 04:00:00 11,6 8,8 7,8 18,2 13,9 0 0 5 3 N 1018,9 - 0 0,0
23.05.2017 03:00:00 12,2 9,0 7,9 18,3 13,9 0 0 5 3 N 1018,6 - 0 0,0
23.05.2017 02:00:00 13,0 9,3 8,4 18,4 13,9 2 1 6 3 NNE 1018,4 - 0 0,0
23.05.2017 01:00:00 13,5 9,5 8,5 18,4 13,9 0 0 6 4 N 1018,3 - 0 0,0
23.05.2017 00:00:00 14,6 9,8 9,7 18,5 13,9 4 2 6 3 NNE 1017,8 - 0 0,0
22.05.2017 23:00:00 15,7 9,8 10,5 18,4 13,9 0 0 5 3 N 1017,4 - 0 0,0
22.05.2017 22:00:00 17,7 10,1 11,5 18,4 13,9 0 0 3 2 N 1016,6 - 0 0,0
22.05.2017 21:00:00 20,3 9,2 15,8 18,3 13,9 0 0 6 4 N 1015,8 - 0 0,0
22.05.2017 20:00:00 23,0 7,9 21,5 18,1 13,9 5 3 15 8 OSO 1015,5 - 44 0,0
22.05.2017 19:00:00 24,8 9,1 25,1 17,9 13,9 7 4 16 8 O 1015,2 - 38 0,0
22.05.2017 18:00:00 24,4 7,9 26,5 17,7 13,9 5 3 26 14 OSO 1015,2 - 49 0,0
22.05.2017 17:00:00 25,6 7,2 31,2 17,4 13,9 12 7 26 14 SO 1015,2 20 60 0,0
22.05.2017 16:00:00 24,8 8,7 29,5 17,1 13,9 9 5 23 13 OSO 1015,5 - 60 0,0
22.05.2017 15:00:00 24,2 8,2 28,5 16,9 13,8 9 5 27 14 SO 1015,7 20 60 0,0
22.05.2017 14:00:00 24,7 9,0 31,4 16,6 13,9 10 5 34 19 SO 1015,8 20 60 0,0
22.05.2017 13:00:00 23,4 7,9 31,7 16,5 13,9 12 7 25 13 SO 1016,7 20 60 0,0
22.05.2017 12:00:00 22,5 7,5 32,1 16,4 13,8 5 3 18 10 SO 1017,0 20 60 0,0
22.05.2017 11:00:00 21,3 7,1 31,3 16,4 13,9 4 2 15 8 SO 1017,2 15 60 0,0
22.05.2017 10:00:00 19,4 7,5 25,2 16,5 13,8 0 0 6 3 N 1017,7 15 60 0,0
22.05.2017 09:00:00 17,0 7,3 10,0 16,6 13,8 3 1 6 4 ESE 1018,3 15 60 0,0
22.05.2017 08:00:00 11,3 7,2 6,3 16,8 13,9 0 0 5 3 N 1018,8 15 60 0,0
22.05.2017 07:00:00 9,0 6,6 4,7 16,9 13,8 0 0 4 2 N 1019,0 15 20 0,0
22.05.2017 06:00:00 8,9 6,5 3,9 17,0 13,9 0 0 4 2 N 1019,0 15 0 0,0
22.05.2017 05:00:00 9,7 6,6 4,2 17,1 13,8 0 0 3 1 N 1018,9 - 0 0,0
22.05.2017 04:00:00 10,1 6,8 5,0 17,2 13,8 0 0 3 1 N 1018,9 - 0 0,0
22.05.2017 03:00:00 10,9 6,8 5,4 17,3 13,8 0 0 4 2 N 1019,1 - 0 0,0
22.05.2017 02:00:00 11,5 7,0 6,1 17,3 13,8 0 0 5 3 N 1019,3 - 0 0,0
22.05.2017 01:00:00 12,6 6,8 7,5 17,4 13,9 0 0 8 4 N 1019,5 - 0 0,0
22.05.2017 00:00:00 15,5 6,8 12,7 17,4 13,8 4 2 17 9 NNE 1019,5 - 0 0,0
21.05.2017 23:00:00 15,3 6,8 8,9 17,4 13,9 3 2 16 9 NE 1020,1 - 0 0,0
21.05.2017 22:00:00 14,8 7,1 9,0 17,3 13,8 0 0 8 4 N 1020,3 - 0 0,0
21.05.2017 21:00:00 17,8 7,2 14,5 17,2 13,8 4 2 16 9 NNE 1019,7 - 25 0,0
21.05.2017 20:00:00 20,3 8,0 21,2 17,1 13,8 6 3 24 13 NNE 1019,5 - 50 0,0
21.05.2017 19:00:00 21,1 8,4 24,5 16,8 13,8 10 5 29 16 NNE 1019,7 - 60 0,0
21.05.2017 18:00:00 20,8 8,1 25,9 16,6 13,8 17 9 36 19 N 1020,1 - 60 0,0
21.05.2017 17:00:00 21,3 8,5 28,1 16,4 13,8 10 6 36 20 NNE 1020,6 30 60 0,0
21.05.2017 16:00:00 20,6 7,6 29,3 16,2 13,8 14 8 33 18 NNE 1021,4 30 60 0,0
21.05.2017 15:00:00 20,2 7,2 30,4 16,0 13,8 14 7 33 18 NNE 1022,0 30 60 0,0
21.05.2017 14:00:00 19,6 7,7 28,9 15,8 13,8 10 5 31 17 NNE 1022,5 30 60 0,0
21.05.2017 13:00:00 19,1 7,8 28,2 15,7 13,8 10 5 29 16 NNE 1023,2 25 60 0,0
21.05.2017 12:00:00 17,8 8,4 26,6 15,6 13,8 11 6 34 18 N 1024,1 25 60 0,0
21.05.2017 11:00:00 16,2 7,7 23,9 15,7 13,8 8 5 28 15 NNE 1024,8 20 60 0,0
21.05.2017 10:00:00 14,6 7,4 19,5 15,9 13,8 7 4 22 12 NNE 1025,5 17 60 0,0
21.05.2017 09:00:00 12,5 7,6 7,6 16,0 13,8 4 2 16 9 N 1025,9 17 60 0,0
21.05.2017 08:00:00 8,4 6,7 3,4 16,1 13,8 3 2 9 5 N 1026,3 - 60 0,0
21.05.2017 07:00:00 6,1 5,2 1,3 16,3 13,8 0 0 3 2 N 1026,5 10 21 0,0
21.05.2017 06:00:00 5,6 4,6 1,1 16,4 13,8 0 0 3 2 N 1026,5 1,2 0 0,0
21.05.2017 05:00:00 5,8 4,6 1,3 16,6 13,8 0 0 4 2 N 1026,6 - 0 0,0
21.05.2017 04:00:00 6,2 4,7 1,6 16,7 13,8 0 0 3 2 N 1026,8 - 0 0,0
21.05.2017 03:00:00 6,5 5,1 1,9 16,8 13,8 0 0 3 1 N 1027,1 - 0 0,0
21.05.2017 02:00:00 6,6 4,9 2,2 16,9 13,8 0 0 3 2 N 1027,3 - 0 0,0
21.05.2017 01:00:00 7,2 4,8 2,8 17,0 13,8 0 0 6 3 N 1027,3 - 0 0,0
21.05.2017 00:00:00 7,9 5,0 3,5 17,1 13,8 0 0 5 3 N 1027,0 - 0 0,0
20.05.2017 23:00:00 9,3 5,1 4,4 17,1 13,8 0 0 5 3 N 1026,8 - 0 0,0
20.05.2017 22:00:00 10,6 5,1 5,3 17,1 13,8 2 1 6 3 N 1026,3 - 0 0,0
20.05.2017 21:00:00 12,7 5,1 9,0 17,0 13,8 3 1 13 7 N 1025,6 - 19 0,0
20.05.2017 20:00:00 15,4 5,6 17,9 16,9 13,7 6 4 12 7 N 1025,1 - 55 0,0
20.05.2017 19:00:00 16,8 5,1 22,5 16,8 13,8 4 2 13 7 NO 1024,4 - 60 0,0
20.05.2017 18:00:00 15,7 5,9 20,5 16,7 13,8 5 3 14 7 N 1024,2 - 39 0,0
20.05.2017 17:00:00 15,6 6,0 19,4 16,5 13,8 6 3 14 7 N 1024,3 25 13 0,0
20.05.2017 16:00:00 15,0 6,5 18,5 16,4 13,8 5 3 18 10 O 1024,2 25 1 0,0
20.05.2017 15:00:00 14,5 5,8 18,0 16,2 13,7 10 5 22 12 SO 1024,1 20 11 0,0
20.05.2017 14:00:00 15,6 4,0 20,2 16,1 13,7 8 4 19 11 OSO 1023,4 20 46 0,0
20.05.2017 13:00:00 15,6 7,4 19,6 16,1 13,8 7 4 20 11 SSO 1023,4 20 44 0,0
20.05.2017 12:00:00 13,1 5,7 12,9 16,1 13,7 5 3 13 7 SSO 1023,8 20 3 0,0
20.05.2017 11:00:00 11,8 5,6 13,0 16,2 13,7 4 2 14 8 SO 1023,6 20 9 0,0
20.05.2017 10:00:00 11,8 5,6 14,2 16,3 13,7 7 4 18 10 SO 1023,1 20 2 0,0
20.05.2017 09:00:00 10,9 6,2 10,9 16,4 13,7 8 4 18 10 SSO 1022,7 20 7 0,0
20.05.2017 08:00:00 10,2 6,7 7,2 16,5 13,7 8 4 16 9 SO 1022,2 15 56 0,0
20.05.2017 07:00:00 8,3 6,3 4,1 16,6 13,7 4 2 9 5 SSO 1021,8 15 2 0,0
20.05.2017 06:00:00 7,6 5,9 4,0 16,7 13,7 0 0 6 4 N 1021,2 15 0 0,0
20.05.2017 05:00:00 8,5 6,5 6,4 16,9 13,7 0 0 7 4 N 1020,9 - 0 0,0
20.05.2017 04:00:00 9,0 6,1 7,2 17,0 13,7 3 2 11 6 SO 1020,8 - 0 0,0
20.05.2017 03:00:00 8,2 7,0 5,4 17,1 13,6 3 2 8 5 SO 1020,7 - 0 0,0
20.05.2017 02:00:00 7,9 6,4 4,7 17,1 13,6 0 0 5 3 N 1020,7 - 0 0,0
20.05.2017 01:00:00 8,2 7,0 4,4 17,3 13,6 2 1 6 3 N 1020,5 - 0 0,0
20.05.2017 00:00:00 8,9 6,3 5,8 17,4 13,6 3 2 9 5 SSO 1020,2 - 0 0,0
19.05.2017 23:00:00 9,3 7,4 5,9 17,4 13,6 0 0 8 4 N 1019,8 - 0 0,0
19.05.2017 22:00:00 10,0 8,1 8,2 17,4 13,6 0 0 3 1 N 1019,3 - 0 0,0
19.05.2017 21:00:00 11,0 7,3 9,3 17,5 13,6 0 0 4 2 N 1018,8 - 12 0,0
19.05.2017 20:00:00 13,3 6,2 15,5 17,4 13,6 3 2 10 5 OSO 1018,4 - 41 0,0
19.05.2017 19:00:00 13,8 7,1 18,4 17,5 13,6 4 2 15 8 SSO 1018,3 - 60 0,0
19.05.2017 18:00:00 12,5 7,4 12,0 17,5 13,5 4 2 15 8 SSE 1018,1 - 50 0,0
19.05.2017 17:00:00 9,3 7,2 8,4 17,5 13,5 0 0 24 13 N 1018,9 9 0 2,6
19.05.2017 16:00:00 12,3 6,6 14,0 17,6 13,5 9 5 18 10 SO 1018,0 7 0 0,0
19.05.2017 15:00:00 11,1 7,0 11,1 17,7 13,5 4 2 15 8 S 1017,9 10 0 0,0
19.05.2017 14:00:00 10,0 6,3 10,5 17,8 13,5 9 5 18 10 SSO 1018,0 8 0 0,0
19.05.2017 13:00:00 9,4 6,5 9,3 17,9 13,5 8 4 15 8 SSO 1018,2 7 0 0,8
19.05.2017 12:00:00 8,9 6,9 9,2 18,0 13,5 8 4 21 12 SO 1018,2 7 0 2,0
19.05.2017 11:00:00 9,0 7,0 9,5 18,1 13,4 8 4 23 12 OSO 1017,6 7 0 1,2
19.05.2017 10:00:00 9,6 7,9 9,8 18,3 13,4 8 4 27 15 OSO 1016,7 - 0 0,9
19.05.2017 09:00:00 9,6 8,4 9,7 18,4 13,4 11 6 24 13 SO 1015,8 6 0 1,6
19.05.2017 08:00:00 9,6 8,2 9,6 18,6 13,4 7 4 19 11 SO 1015,0 7 0 1,0
19.05.2017 07:00:00 9,8 8,6 9,6 18,7 13,4 8 5 19 10 SO 1014,6 6 0 1,2
19.05.2017 06:00:00 9,9 8,3 9,7 18,8 13,4 10 6 26 14 O 1014,0 4,0 0 0,6
19.05.2017 05:00:00 10,8 9,4 10,5 18,9 13,4 5 3 13 7 SO 1014,0 - 0 0,8
19.05.2017 04:00:00 11,7 8,7 10,9 19,0 13,4 7 4 14 7 SO 1013,9 - 0 0,0
19.05.2017 03:00:00 11,7 8,4 10,6 19,1 13,4 3 2 19 10 OSO 1014,0 - 0 0,0
19.05.2017 02:00:00 11,8 8,1 10,7 19,1 13,3 8 5 29 15 OSO 1013,8 - 0 0,0
19.05.2017 01:00:00 13,3 10,5 12,4 19,2 13,3 11 6 31 17 OSO 1013,0 - 0 0,6
19.05.2017 00:00:00 16,5 13,2 15,8 19,2 13,3 18 10 32 17 SSO 1012,0 - 0 0,0
18.05.2017 23:00:00 17,0 13,7 15,3 19,2 13,3 3 1 18 10 SO 1010,0 - 0 0,0
18.05.2017 22:00:00 16,7 14,7 15,1 19,2 13,3 4 2 6 3 N 1009,6 - 0 0,0
18.05.2017 21:00:00 17,0 14,3 15,7 19,2 13,3 0 0 23 12 N 1009,6 - 0 3,5
18.05.2017 20:00:00 21,9 10,4 20,0 19,0 13,2 0 0 5 3 N 1008,7 - 11 0,0
18.05.2017 19:00:00 23,1 9,5 23,5 18,9 13,2 5 3 12 7 OSO 1008,7 - 11 0,0
18.05.2017 18:00:00 24,6 9,7 26,7 18,7 13,2 8 4 19 10 OSO 1009,0 - 54 0,0
18.05.2017 17:00:00 24,5 9,6 25,9 18,6 13,2 9 5 27 15 OSO 1009,7 25 51 0,0
18.05.2017 16:00:00 24,9 8,4 27,7 18,4 13,2 7 4 26 14 SO 1010,3 25 47 0,0
18.05.2017 15:00:00 24,2 9,0 28,0 18,3 13,2 6 4 21 12 SSO 1011,2 20 34 0,0
18.05.2017 14:00:00 24,2 10,8 28,6 18,2 13,2 6 3 19 10 ESE 1011,7 20 23 0,0
18.05.2017 13:00:00 22,6 10,7 27,4 18,2 13,1 3 2 10 6 SSO 1012,6 20 22 0,0
18.05.2017 12:00:00 20,5 10,9 20,7 18,2 13,1 3 1 10 5 E 1013,6 18 0 0,0
18.05.2017 11:00:00 18,8 12,1 19,2 18,3 13,1 0 0 6 3 N 1014,3 15 0 0,0
18.05.2017 10:00:00 18,5 12,3 20,0 18,3 13,1 3 2 7 4 OSO 1015,2 15 0 0,0
18.05.2017 09:00:00 18,2 12,9 17,5 18,3 13,1 0 0 5 3 N 1015,0 15 0 0,0
18.05.2017 08:00:00 18,2 12,6 17,5 18,4 13,1 0 0 4 2 N 1015,2 15 0 0,0
18.05.2017 07:00:00 17,6 11,6 17,1 18,5 13,0 0 0 8 5 N 1015,3 15 0 0,0
18.05.2017 06:00:00 17,7 11,3 16,6 18,6 13,0 4 2 16 9 SSO 1015,5 15 0 0,0
18.05.2017 05:00:00 17,5 10,1 16,5 18,8 13,0 8 4 30 16 SSO 1015,2 - 0 0,0
18.05.2017 04:00:00 18,8 8,4 17,6 18,8 13,0 14 7 37 20 SSO 1014,9 - 0 0,0
18.05.2017 03:00:00 20,5 7,5 18,8 18,9 13,0 13 7 30 16 SO 1013,7 - 0 0,0
18.05.2017 02:00:00 20,9 7,5 16,1 19,0 13,0 6 4 18 10 SSO 1013,4 - 0 0,0
18.05.2017 01:00:00 20,5 8,2 15,2 19,1 13,0 5 3 24 13 SSO 1013,8 - 0 0,0
18.05.2017 00:00:00 19,6 9,5 12,8 19,1 13,0 2 1 10 5 SSO 1014,0 - 0 0,0
17.05.2017 23:00:00 18,0 12,2 12,8 19,1 13,0 0 0 4 2 N 1014,5 - 0 0,0
17.05.2017 22:00:00 20,1 12,1 14,0 19,1 13,0 2 1 4 2 N 1014,3 - 0 0,0
17.05.2017 21:00:00 22,7 11,1 17,5 18,9 12,9 0 0 6 3 N 1013,9 - 0 0,0
17.05.2017 20:00:00 26,3 10,8 24,7 18,7 12,9 3 2 16 9 OSO 1013,6 - 52 0,0
17.05.2017 19:00:00 27,5 10,7 29,3 18,5 12,9 9 5 23 12 SO 1013,8 - 60 0,0
17.05.2017 18:00:00 28,3 11,4 32,1 18,2 12,9 8 5 23 12 OSO 1014,0 - 60 0,0
17.05.2017 17:00:00 28,6 9,8 32,9 18,0 12,9 9 5 25 13 SO 1014,6 30 60 0,0
17.05.2017 16:00:00 28,4 9,6 34,8 17,7 12,8 9 5 22 12 SO 1015,3 30 60 0,0

tt = Temperatura
td = dewpoint
tt 5cm = Temperatura 5cm
tt -20cm = Temperatura -20cm
tt -100cm = Temperatura -100cm
ff = velocità del vento
fx = gusts
dd = direzione del vento
ppp = reduced air pressure
vv = visibility
sd = ore di luce
rr = precipitazioni

Stazioni seguenti

WeatherPro
AMSI
MeteoEarth